Gold Coast Seaway Observation History
Time Wind Speed Temp Pressure Rel. Hum Rain
01/04:30am SW 6-8 kts 20.8°c 1016.1 hPa 82% 0.0mm
01/04:00am SW 6-8 kts 20.9°c 1015.9 hPa 83% 0.0mm
01/03:30am WSW 5-6 kts 20.9°c 1015.7 hPa 82% 0.0mm
01/03:00am WSW 5-6 kts 21.1°c 1015.8 hPa 81% 0.0mm
01/02:30am W 5-7 kts 21.2°c 1015.7 hPa 80% 0.0mm
01/02:00am WSW 5-6 kts 21.3°c 1015.8 hPa 80% 0.0mm
01/01:30am WSW 5-7 kts 21.5°c 1016.0 hPa 79% 0.0mm
01/01:00am SW 5-7 kts 21.7°c 1015.9 hPa 79% 0.0mm
01/12:30am SW 6-7 kts 21.8°c 1016.0 hPa 78% 0.0mm
01/12:00am WSW 6-8 kts 22.1°c 1016.4 hPa 77% 0.0mm
Time Wind Speed Temp Pressure Rel. Hum Rain
31/11:30pm SW 5-7 kts 22.3°c 1016.4 hPa 76% 0.0mm
31/11:00pm SW 6-7 kts 22.6°c 1016.6 hPa 76% 0.0mm
31/10:30pm SW 5-7 kts 22.7°c 1016.6 hPa 77% 0.0mm
31/10:00pm SW 5-8 kts 22.6°c 1016.7 hPa 78% 0.0mm
31/09:30pm S 7-9 kts 22.6°c 1016.6 hPa 77% 0.0mm
31/09:00pm S 8-9 kts 22.4°c 1016.7 hPa 75% 0.0mm
31/08:30pm SSE 11-14 kts 23.5°c 1016.5 hPa 75% 0.0mm
31/08:00pm SSE 10-13 kts 23.6°c 1016.5 hPa 74% 0.0mm
31/07:30pm SSE 13-16 kts 24.0°c 1016.2 hPa 74% 0.0mm
31/07:00pm SE 15-16 kts 24.5°c 1015.7 hPa 73% 0.0mm
31/06:30pm SE 15-18 kts 24.6°c 1015.4 hPa 72% 0.0mm
31/06:00pm SE 17-19 kts 24.9°c 1015.0 hPa 70% 0.0mm
31/05:30pm SE 16-19 kts 25.2°c 1014.6 hPa 70% 0.0mm
31/05:00pm SE 14-17 kts 25.6°c 1014.2 hPa 69% 0.0mm
31/04:30pm SE 15-17 kts 25.9°c 1013.9 hPa 68% 0.0mm
31/04:00pm SE 15-18 kts 26.4°c 1013.8 hPa 68% 0.0mm
31/03:30pm SE 15-17 kts 26.6°c 1013.6 hPa 66% 0.0mm
31/03:00pm SE 15-17 kts 26.5°c 1013.6 hPa 66% 0.0mm
31/02:30pm SE 12-14 kts 27.8°c 1013.1 hPa 59% 0.0mm
31/02:00pm ESE 9-10 kts 28.1°c 1013.2 hPa 60% 0.0mm
31/01:30pm E 6-7 kts 29.5°c 1013.3 hPa 56% 0.0mm
31/01:00pm NNW 2-4 kts 29.4°c 1013.5 hPa 54% 0.0mm
31/12:30pm NW 7-9 kts 27.4°c 1013.9 hPa 58% 0.0mm
31/12:00pm NW 8-10 kts 27.6°c 1014.3 hPa 59% 0.0mm
31/11:30am NW 7-8 kts 26.8°c 1014.7 hPa 64% 0.0mm
31/11:00am NW 10-12 kts 25.9°c 1015.0 hPa 67% 0.0mm
31/10:30am NW 11-14 kts 25.3°c 1015.3 hPa 68% 0.0mm
31/10:00am WNW 8-11 kts 24.9°c 1015.7 hPa 69% 0.0mm
31/09:30am NW 9-11 kts 24.8°c 1015.7 hPa 70% 0.0mm
31/09:00am NW 11-15 kts 24.3°c 1015.7 hPa 70% 0.0mm
31/08:30am NW 11-14 kts 24.9°c 1015.7 hPa 69% 0.0mm
31/08:00am NW 13-16 kts 25.1°c 1015.5 hPa 69% 0.0mm
31/07:30am NW 12-15 kts 24.2°c 1015.1 hPa 73% 0.0mm
31/07:00am NW 6-8 kts 22.9°c 1014.9 hPa 78% 0.0mm
31/06:30am NNW 6-8 kts 22.4°c 1014.8 hPa 80% 0.0mm
31/06:00am NNW 5-6 kts 22.1°c 1014.7 hPa 82% 0.0mm
31/05:30am NNW 5-7 kts 22.3°c 1014.2 hPa 80% 0.0mm
31/05:00am NNW 4-6 kts 22.7°c 1014.1 hPa 79% 0.0mm
31/04:30am NW 8-10 kts 23.1°c 1014.1 hPa 77% 0.0mm
31/04:00am NW 8-10 kts 22.9°c 1013.9 hPa 79% 0.0mm
31/03:30am NNW 5-7 kts 22.4°c 1013.9 hPa 83% 0.0mm
31/03:00am NW 6-8 kts 22.2°c 1014.1 hPa 82% 0.0mm
31/02:30am NW 7-9 kts 22.4°c 1014.4 hPa 83% 0.0mm
31/02:00am NW 4-5 kts 21.3°c 1014.5 hPa 82% 0.0mm
31/01:30am W 5 kts 21.7°c 1014.9 hPa 82% 0.0mm
31/01:00am W 5-6 kts 21.9°c 1015.1 hPa 82% 0.0mm
31/12:30am W 4-5 kts 21.7°c 1015.0 hPa 81% 0.0mm
31/12:00am W 5-6 kts 22.3°c 1015.2 hPa 80% 0.0mm
Time Wind Speed Temp Pressure Rel. Hum Rain
30/11:30pm W 4-5 kts 22.3°c 1015.5 hPa 80% 0.0mm
30/11:00pm W 6-7 kts 22.8°c 1015.6 hPa 77% 0.0mm
30/10:30pm WNW 6-8 kts 23.3°c 1015.6 hPa 76% 0.0mm
30/10:00pm NW 7-8 kts 23.6°c 1015.5 hPa 76% 0.0mm
30/09:30pm NNW 6-9 kts 23.4°c 1015.6 hPa 75% 0.0mm
30/09:00pm WNW 4-5 kts 23.4°c 1016.1 hPa 76% 0.0mm
30/08:30pm W 5-6 kts 23.5°c 1016.0 hPa 76% 0.0mm
30/08:00pm NW 5-7 kts 23.7°c 1015.7 hPa 75% 0.0mm
30/07:30pm NW 6-7 kts 24.0°c 1015.5 hPa 74% 0.0mm
30/07:00pm NNW 8-9 kts 24.2°c 1015.3 hPa 72% 0.0mm
30/06:30pm N 11-14 kts 24.6°c 1015.1 hPa 70% 0.0mm
30/06:00pm N 12-14 kts 24.9°c 1014.9 hPa 69% 0.0mm
30/05:30pm NNE 12-15 kts 25.0°c 1014.9 hPa 70% 0.0mm
30/05:00pm NNE 14-16 kts 25.5°c 1014.6 hPa 67% 0.0mm
30/04:30pm NNE 15-17 kts 26.3°c 1014.4 hPa 63% 0.0mm
30/04:00pm NNE 15-17 kts 26.5°c 1014.1 hPa 66% 0.0mm
30/03:30pm NNE 15-17 kts 26.4°c 1014.1 hPa 65% 0.0mm
30/03:00pm NNE 14-17 kts 27.1°c 1014.1 hPa 62% 0.0mm
30/02:30pm NE 13-15 kts 27.1°c 1014.2 hPa 64% 0.0mm
30/02:00pm NE 13-16 kts 27.2°c 1014.2 hPa 64% 0.0mm
30/01:30pm NE 12-14 kts 26.4°c 1014.5 hPa 68% 0.0mm
30/01:00pm NE 10-12 kts 26.6°c 1015.0 hPa 64% 0.0mm
30/12:30pm NE 9-11 kts 26.5°c 1015.3 hPa 65% 0.0mm
30/12:00pm ENE 8-9 kts 27.0°c 1015.8 hPa 65% 0.0mm
30/11:30am NE 8-9 kts 26.6°c 1016.4 hPa 64% 0.0mm
30/11:00am NE 7-8 kts 26.5°c 1016.7 hPa 65% 0.0mm
30/10:30am ENE 6-7 kts 26.0°c 1017.0 hPa 65% 0.0mm
30/10:00am ENE 6-8 kts 25.9°c 1016.9 hPa 65% 0.0mm
30/09:30am ENE 3-5 kts 25.6°c 1017.1 hPa 66% 0.0mm
30/09:00am ESE 4-5 kts 25.2°c 1017.1 hPa 68% 0.0mm
30/08:30am CALM 0 kts 24.5°c 1017.1 hPa 72% 0.0mm
30/08:00am W 1-4 kts 22.6°c 1017.2 hPa 75% 0.0mm
30/07:30am WSW 5 kts 21.4°c 1017.0 hPa 81% 0.0mm
30/07:00am SW 5-7 kts 20.2°c 1016.6 hPa 85% 0.0mm
30/06:30am WSW 5-7 kts 19.6°c 1016.3 hPa 86% 0.0mm
30/06:00am SW 7-8 kts 19.4°c 1016.1 hPa 87% 0.0mm
30/05:30am SW 6-8 kts 19.4°c 1016.0 hPa 87% 0.0mm
30/05:00am SW 6-7 kts 19.6°c 1015.9 hPa 87% 0.0mm
30/04:30am SW 6-7 kts 19.6°c 1015.8 hPa 87% 0.0mm
30/04:00am WSW 5-6 kts 19.6°c 1016.0 hPa 87% 0.0mm
30/03:30am WSW 5-6 kts 19.9°c 1016.1 hPa 87% 0.0mm
30/03:00am WSW 5-6 kts 20.0°c 1016.3 hPa 87% 0.0mm
30/02:30am SW 4-5 kts 19.9°c 1016.4 hPa 86% 0.0mm
30/02:00am SW 5-6 kts 20.2°c 1016.9 hPa 85% 0.0mm
30/01:30am SW 5-7 kts 20.5°c 1017.2 hPa 86% 0.0mm
30/01:00am WSW 5-6 kts 20.5°c 1017.4 hPa 86% 0.0mm
30/12:30am WSW 5-6 kts 20.9°c 1017.6 hPa 86% 0.0mm
30/12:00am WSW 5-6 kts 21.0°c 1017.7 hPa 85% 0.0mm